Location: Henham
(51.9333°N, 0.2500°E)
Time: 20:27:11
(UTC+00:00)

STARLINK-57 - Pass Details

Date: 23 October 2019
Orbit: 548 x 551 km, 53.0° (Epoch: 21 November)

Event Time Altitude Azimuth Distance (km) Brightness Sun altitude
Rises 17:14:11 0° 268° (W) 2,717 9.4 -4.6°
Reaches altitude 10° 17:16:25 10° 270° (W) 1,824 8.0 -4.9°
Maximum altitude 17:20:34 76° 357° (N) 571 3.7 -5.5°
Drops below altitude 10° 17:24:43 10° 83° (E) 1,826 5.6 -6.2°
Enters shadow 17:25:10 - 83° (E) 2,003 5.8 -6.2°
